Location: Lake Arresoe
(56.0000°N, 12.5000°E)
Time: 07:46:43
(UTC+02:00)

Okean 3 - Pass Details

Date: 16 August 2020
Orbit: 577 x 600 km, 82.5° (Epoch: 21 September)

Event Time Altitude Azimuth Distance (km) Brightness Sun altitude
Rises 22:30:21 0° 347° (NNW) 2,858 8.1 -12.7°
Reaches altitude 10° 22:32:35 10° 349° (NNW) 1,953 7.1 -12.9°
Maximum altitude 22:36:55 86° 77° (ENE) 611 3.5 -13.2°
Enters shadow 22:40:00 19° 167° (SSE) 1,456 4.9 -13.5°
